QPF
0.00 0.00 0.00 0.00 0.00 0.00 0.00 0.00 0.00 0.00 0.00 0.00 0.00 0.00 0.00 0.00 0.00 0.03 0.05 0.07 0.01 0.03 0.03 0.00 0.01 0.01 0.00 0.00 0.00 0.00 0.00 0.00 0.00 0.00 0.00 0.00 0.00 0.00 0.00 0.00 0.00 0.00 0.00 0.00 0.00 0.00 0.00 0.00 0.00
0.00 0.00 0.00 0.00 0.00 0.00 0.00 0.00 0.00 0.00 0.00 0.00 0.00 0.02 0.03 0.06 0.00 0.00 0.01 0.01 0.02 0.08 0.09 0.03 0.00 0.00 0.00 0.00 0.00 0.00 0.00 0.00 0.00 0.00 0.00 0.00 0.00 0.00 0.00 0.00 0.00 0.00 0.00 0.00 0.00 0.00 0.00 0.00 0.00
0.00 0.00 0.00 0.00 0.00 0.00 0.00 0.00 0.00 0.00 0.00 0.00 0.00 0.01 0.07 0.16 0.08 0.01 0.01 0.04 0.12 0.04 0.16 0.03 0.00 0.00 0.00 0.00 0.00 0.00 0.00 0.00 0.00 0.00 0.00 0.00 0.00 0.00 0.00 0.00 0.00 0.00 0.00 0.00 0.00 0.00 0.00 0.00 0.00
0.00 0.00 0.00 0.00 0.00 0.00 0.00 0.00 0.00 0.00 0.00 0.00 0.00 0.03 0.01 0.06 0.13 0.19 0.07 0.07 0.22 0.16 0.19 0.01 0.00 0.00 0.00 0.00 0.00 0.00 0.00 0.00 0.00 0.00 0.00 0.00 0.00 0.00 0.00 0.00 0.00 0.00 0.00 0.00 0.00 0.00 0.00 0.00 0.00
0.00 0.00 0.00 0.00 0.00 0.00 0.00 0.00 0.00 0.00 0.00 0.00 0.00 0.07 0.01 0.02 0.03 0.22 0.15 0.08 0.17 0.17 0.14 0.02 0.01 0.00 0.00 0.00 0.00 0.00 0.00 0.00 0.00 0.00 0.00 0.00 0.00 0.00 0.00 0.00 0.00 0.00 0.00 0.00 0.00 0.00 0.00 0.00 0.00
0.00 0.00 0.00 0.00 0.00 0.00 0.00 0.00 0.00 0.00 0.00 0.00 0.00 0.07 0.05 0.07 0.02 0.04 0.03 0.10 0.14 0.20 0.22 0.11 0.06 0.02 0.00 0.00 0.00 0.00 0.00 0.00 0.00 0.00 0.00 0.00 0.00 0.00 0.00 0.00 0.00 0.00 0.00 0.00 0.00 0.00 0.00 0.00 0.00
0.00 0.00 0.00 0.00 0.00 0.00 0.00 0.00 0.00 0.00 0.00 0.00 0.00 0.07 0.03 0.06 0.10 0.03 0.01 0.16 0.34 0.48 0.48 0.27 0.16 0.10 0.03 0.00 0.00 0.00 0.00 0.00 0.00 0.00 0.00 0.00 0.00 0.00 0.00 0.00 0.00 0.00 0.00 0.00 0.00 0.00 0.00 0.00 0.00
0.00 0.00 0.00 0.00 0.00 0.01 0.00 0.00 0.00 0.00 0.00 0.00 0.00 0.08 0.02 0.02 0.06 0.04 0.03 0.07 0.25 0.33 0.26 0.33 0.18 0.13 0.06 0.02 0.00 0.00 0.00 0.00 0.00 0.00 0.00 0.00 0.00 0.00 0.00 0.00 0.00 0.00 0.00 0.00 0.00 0.00 0.00 0.00 0.00
0.00 0.00 0.00 0.00 0.00 0.00 0.00 0.00 0.00 0.00 0.00 0.00 0.00 0.02 0.03 0.00 0.01 0.01 0.01 0.04 0.19 0.18 0.13 0.12 0.08 0.09 0.05 0.02 0.02 0.01 0.00 0.00 0.00 0.00 0.00 0.00 0.00 0.00 0.00 0.00 0.00 0.00 0.00 0.00 0.00 0.00 0.00 0.00 0.00
0.00 0.00 0.00 0.00 0.00 0.00 0.00 0.00 0.00 0.00 0.00 0.01 0.00 0.01 0.01 0.01 0.01 0.00 0.00 0.01 0.08 0.09 0.10 0.10 0.08 0.06 0.04 0.01 0.03 0.02 0.00 0.00 0.00 0.00 0.00 0.00 0.00 0.00 0.00 0.00 0.00 0.00 0.00 0.00 0.00 0.00 0.00 0.00 0.00
0.00 0.00 0.00 0.00 0.00 0.00 0.00 0.00 0.00 0.00 0.01 0.03 0.02 0.01 0.01 0.02 0.01 0.00 0.00 0.00 0.01 0.03 0.05 0.08 0.04 0.01 0.01 0.00 0.02 0.06 0.01 0.00 0.00 0.00 0.00 0.00 0.00 0.00 0.00 0.00 0.00 0.00 0.00 0.00 0.00 0.00 0.00 0.00 0.00
0.00 0.00 0.00 0.00 0.00 0.00 0.00 0.00 0.00 0.00 0.02 0.00 0.01 0.00 0.00 0.01 0.00 0.00 0.00 0.00 0.00 0.00 0.01 0.02 0.01 0.01 0.01 0.00 0.02 0.02 0.02 0.00 0.00 0.00 0.00 0.00 0.00 0.00 0.00 0.00 0.00 0.00 0.00 0.00 0.00 0.00 0.00 0.00 0.00
0.00 0.00 0.00 0.00 0.00 0.00 0.00 0.00 0.00 0.01 0.00 0.00 0.00 0.03 0.02 0.02 0.01 0.00 0.00 0.00 0.00 0.00 0.00 0.00 0.01 0.01 0.01 0.01 0.01 0.02 0.01 0.00 0.00 0.00 0.00 0.00 0.00 0.00 0.00 0.00 0.00 0.00 0.00 0.00 0.00 0.00 0.00 0.00 0.00
0.00 0.00 0.00 0.00 0.00 0.00 0.00 0.00 0.01 0.01 0.00 0.00 0.00 0.03 0.09 0.07 0.00 0.00 0.00 0.00 0.00 0.00 0.00 0.00 0.01 0.01 0.01 0.00 0.00 0.00 0.00 0.00 0.00 0.00 0.00 0.00 0.00 0.00 0.00 0.00 0.00 0.00 0.00 0.00 0.00 0.00 0.00 0.00 0.00
0.00 0.00 0.00 0.00 0.00 0.00 0.01 0.02 0.00 0.00 0.00 0.00 0.00 0.00 0.03 0.17 0.05 0.01 0.00 0.00 0.00 0.00 0.00 0.00 0.00 0.00 0.00 0.00 0.00 0.00 0.00 0.00 0.00 0.00 0.00 0.00 0.00 0.00 0.00 0.00 0.00 0.00 0.00 0.00 0.00 0.00 0.00 0.00 0.00
0.00 0.00 0.00 0.00 0.00 0.00 0.01 0.02 0.00 0.00 0.00 0.00 0.00 0.00 0.00 0.04 0.02 0.00 0.00 0.00 0.00 0.00 0.00 0.00 0.00 0.02 0.02 0.02 0.00 0.00 0.00 0.00 0.00 0.00 0.01 0.00 0.00 0.00 0.00 0.00 0.00 0.00 0.00 0.00 0.00 0.00 0.00 0.00 0.00
0.00 0.00 0.00 0.00 0.00 0.00 0.00 0.02 0.00 0.00 0.00 0.00 0.00 0.00 0.00 0.00 0.00 0.00 0.00 0.00 0.00 0.00 0.00 0.00 0.01 0.03 0.03 0.03 0.01 0.00 0.00 0.00 0.00 0.01 0.02 0.01 0.00 0.00 0.00 0.00 0.00 0.00 0.00 0.00 0.00 0.00 0.00 0.00 0.00
0.00 0.00 0.00 0.00 0.00 0.00 0.00 0.00 0.00 0.00 0.00 0.00 0.00 0.00 0.00 0.00 0.00 0.00 0.00 0.00 0.00 0.00 0.00 0.00 0.01 0.02 0.02 0.02 0.00 0.00 0.00 0.02 0.04 0.03 0.04 0.01 0.00 0.00 0.00 0.00 0.00 0.00 0.00 0.00 0.00 0.00 0.00 0.00 0.00
0.00 0.00 0.00 0.00 0.00 0.00 0.00 0.00 0.00 0.00 0.00 0.00 0.00 0.00 0.00 0.00 0.00 0.00 0.00 0.00 0.00 0.00 0.00 0.00 0.00 0.01 0.04 0.02 0.00 0.00 0.00 0.02 0.04 0.08 0.08 0.02 0.00 0.00 0.00 0.00 0.00 0.00 0.00 0.00 0.00 0.00 0.00 0.00 0.00
0.00 0.00 0.00 0.00 0.00 0.00 0.00 0.00 0.00 0.00 0.00 0.00 0.00 0.00 0.00 0.00 0.00 0.00 0.00 0.00 0.00 0.00 0.00 0.00 0.00 0.00 0.04 0.01 0.00 0.00 0.00 0.00 0.01 0.04 0.04 0.01 0.00 0.00 0.00 0.00 0.00 0.00 0.00 0.00 0.00 0.00 0.00 0.00 0.00
0.00 0.00 0.00 0.00 0.00 0.00 0.00 0.00 0.00 0.00 0.00 0.00 0.00 0.00 0.00 0.00 0.00 0.00 0.00 0.00 0.00 0.00 0.00 0.00 0.00 0.00 0.04 0.00 0.00 0.00 0.01 0.01 0.02 0.01 0.01 0.01 0.00 0.00 0.00 0.00 0.00 0.00 0.00 0.00 0.00 0.00 0.00 0.00 0.00
0.00 0.00 0.00 0.00 0.00 0.00 0.00 0.00 0.00 0.00 0.00 0.00 0.00 0.00 0.00 0.00 0.00 0.00 0.00 0.00 0.00 0.00 0.00 0.00 0.00 0.00 0.01 0.00 0.00 0.00 0.00 0.00 0.00 0.01 0.01 0.01 0.02 0.01 0.01 0.00 0.00 0.00 0.00 0.00 0.00 0.00 0.00 0.00 0.00
0.00 0.00 0.00 0.00 0.00 0.00 0.00 0.00 0.00 0.00 0.00 0.00 0.00 0.00 0.00 0.00 0.00 0.00 0.00 0.00 0.00 0.00 0.00 0.00 0.00 0.00 0.00 0.03 0.00 0.00 0.00 0.00 0.04 0.01 0.00 0.00 0.02 0.03 0.02 0.02 0.01 0.00 0.00 0.00 0.00 0.00 0.00 0.00 0.00
0.00 0.00 0.00 0.00 0.00 0.00 0.00 0.00 0.00 0.00 0.00 0.00 0.00 0.00 0.00 0.00 0.00 0.00 0.00 0.00 0.00 0.00 0.00 0.00 0.00 0.00 0.00 0.02 0.01 0.01 0.00 0.02 0.10 0.05 0.02 0.02 0.01 0.01 0.03 0.03 0.02 0.00 0.00 0.00 0.00 0.00 0.00 0.00 0.00
0.00 0.00 0.00 0.00 0.00 0.00 0.00 0.00 0.00 0.00 0.00 0.00 0.00 0.00 0.00 0.00 0.00 0.00 0.00 0.00 0.00 0.00 0.00 0.00 0.00 0.00 0.00 0.02 0.02 0.02 0.00 0.01 0.03 0.05 0.05 0.05 0.03 0.02 0.02 0.02 0.01 0.00 0.00 0.00 0.00 0.00 0.00 0.00 0.00
0.00 0.00 0.00 0.01 0.00 0.00 0.00 0.00 0.00 0.00 0.00 0.00 0.00 0.00 0.00 0.00 0.00 0.00 0.00 0.00 0.00 0.00 0.00 0.00 0.00 0.00 0.00 0.00 0.01 0.00 0.00 0.00 0.02 0.09 0.08 0.03 0.01 0.02 0.02 0.01 0.00 0.00 0.00 0.00 0.00 0.00 0.00 0.00 0.00
0.00 0.00 0.00 0.00 0.00 0.00 0.00 0.00 0.00 0.00 0.00 0.00 0.00 0.00 0.00 0.00 0.00 0.00 0.00 0.00 0.00 0.00 0.00 0.00 0.00 0.00 0.00 0.02 0.04 0.00 0.00 0.00 0.00 0.00 0.00 0.01 0.00 0.01 0.01 0.00 0.00 0.00 0.00 0.00 0.00 0.00 0.00 0.00 0.00
0.00 0.00 0.00 0.00 0.01 0.01 0.00 0.00 0.00 0.00 0.00 0.00 0.00 0.00 0.00 0.00 0.00 0.00 0.00 0.00 0.00 0.00 0.00 0.00 0.00 0.00 0.02 0.07 0.13 0.04 0.00 0.00 0.00 0.01 0.04 0.03 0.03 0.03 0.01 0.00 0.00 0.00 0.00 0.00 0.00 0.00 0.00 0.00 0.00
0.00 0.00 0.00 0.00 0.00 0.00 0.00 0.00 0.00 0.00 0.00 0.00 0.00 0.00 0.00 0.00 0.00 0.00 0.00 0.00 0.00 0.00 0.00 0.00 0.00 0.00 0.00 0.01 0.07 0.02 0.00 0.00 0.00 0.01 0.01 0.01 0.01 0.01 0.00 0.00 0.00 0.00 0.00 0.00 0.00 0.00 0.00 0.00 0.00
0.00 0.00 0.00 0.00 0.00 0.00 0.00 0.00 0.00 0.00 0.00 0.00 0.00 0.00 0.00 0.00 0.00 0.00 0.00 0.00 0.00 0.00 0.00 0.00 0.00 0.00 0.00 0.00 0.00 0.00 0.00 0.01 0.01 0.01 0.00 0.01 0.01 0.01 0.01 0.01 0.00 0.00 0.00 0.00 0.00 0.00 0.00 0.00 0.00
MSLP
1011.68 1010.98 1009.63 1008.49 1007.37 1005.13 1003.02 1001.61 1000.67 1000.89 1001.25 1001.61 1001.15 1001.07 1002.08 1004.37 1005.41 1007.56 1008.35 1008.69 1008.37 1008.88 1010.26 1011.45 1012.20 1012.78 1013.42 1013.92 1014.40 1015.02 1015.48 1015.66 1016.10 1016.48 1016.90 1017.25 1017.59 1017.88 1018.37 1018.52 1018.63 1018.91 1019.24 1019.55 1019.83 1020.02 1020.26 1020.57 1020.73
1010.20 1009.65 1009.01 1007.29 1005.84 1003.22 1001.57 1001.09 1001.33 1001.81 1002.08 1001.18 1003.52 1003.08 1003.52 1005.12 1006.87 1008.09 1008.85 1009.59 1009.12 1009.61 1010.19 1011.38 1012.34 1013.09 1013.79 1014.21 1014.66 1015.16 1015.68 1015.95 1016.37 1016.82 1017.35 1017.62 1017.88 1018.19 1018.52 1018.73 1019.02 1019.19 1019.52 1019.87 1020.17 1020.37 1020.73 1021.04 1021.18
1010.83 1009.52 1008.03 1005.96 1004.52 1002.82 1001.80 1001.73 1001.78 1002.88 1003.32 1003.28 1003.71 1004.82 1005.73 1005.31 1008.57 1008.71 1008.95 1009.51 1009.77 1010.43 1010.52 1011.81 1012.65 1013.39 1014.00 1014.43 1015.00 1015.39 1015.87 1016.37 1016.69 1017.15 1017.69 1018.01 1018.23 1018.62 1018.87 1019.14 1019.40 1019.48 1019.84 1020.23 1020.63 1020.85 1021.14 1021.36 1021.54
1009.27 1008.27 1007.37 1005.76 1003.74 1002.87 1002.49 1002.82 1003.21 1003.20 1003.62 1004.36 1004.16 1005.28 1007.85 1009.76 1010.69 1010.31 1010.86 1010.07 1010.51 1011.48 1011.54 1012.48 1012.52 1013.53 1014.05 1014.57 1015.23 1015.62 1016.22 1016.61 1016.91 1017.55 1018.07 1018.28 1018.56 1018.96 1019.20 1019.39 1019.68 1019.99 1020.31 1020.76 1021.12 1021.45 1021.68 1021.82 1021.92
1008.86 1007.22 1005.65 1004.36 1003.46 1003.38 1003.70 1003.74 1004.01 1003.78 1002.35 1004.78 1004.91 1004.36 1006.79 1010.43 1011.31 1011.08 1011.16 1011.52 1011.07 1009.43 1012.05 1012.46 1013.38 1013.81 1014.32 1014.86 1015.41 1015.99 1016.47 1017.08 1017.43 1017.76 1018.45 1018.72 1018.97 1019.37 1019.68 1019.77 1020.09 1020.30 1020.66 1021.22 1021.58 1021.91 1022.06 1022.32 1022.28
1007.40 1006.45 1004.73 1003.36 1003.11 1003.91 1003.96 1004.51 1004.72 1004.77 1005.01 1005.29 1005.43 1004.74 1007.88 1011.57 1011.82 1011.95 1011.74 1011.35 1011.17 1011.19 1012.19 1013.11 1013.98 1014.37 1014.63 1015.15 1015.74 1016.33 1016.79 1017.22 1018.00 1018.14 1018.91 1018.91 1019.40 1019.84 1020.13 1020.29 1020.59 1020.87 1021.00 1021.45 1021.96 1022.26 1022.44 1022.55 1022.66
1006.99 1005.67 1004.29 1004.04 1003.74 1004.21 1004.32 1005.04 1005.05 1004.62 1004.82 1005.37 1006.58 1007.29 1010.40 1011.81 1012.82 1012.77 1012.41 1012.25 1012.22 1012.30 1012.31 1013.69 1014.36 1014.87 1015.39 1015.83 1016.26 1016.67 1017.47 1017.68 1018.28 1018.64 1019.08 1019.28 1019.74 1020.10 1020.36 1020.80 1020.99 1021.18 1021.44 1021.92 1022.21 1022.64 1022.63 1022.80 1023.02
1007.11 1005.85 1004.35 1004.01 1005.11 1006.18 1004.95 1005.40 1005.89 1005.80 1005.59 1007.06 1007.57 1008.07 1010.05 1012.14 1012.68 1012.89 1012.85 1013.17 1013.10 1013.08 1011.91 1013.94 1014.94 1015.28 1015.67 1016.40 1017.00 1017.35 1017.95 1018.34 1018.68 1019.25 1019.65 1019.56 1020.18 1020.51 1020.69 1021.04 1021.41 1021.63 1021.88 1022.33 1022.71 1022.82 1023.04 1023.37 1023.46
1007.08 1005.34 1003.78 1004.06 1004.11 1005.47 1004.78 1004.90 1006.00 1006.95 1006.91 1007.81 1009.16 1010.14 1011.35 1012.59 1013.10 1013.35 1013.73 1013.94 1014.00 1014.21 1014.25 1014.60 1015.44 1015.68 1015.96 1016.22 1017.16 1018.13 1018.68 1018.99 1019.15 1019.42 1020.23 1020.03 1020.32 1020.54 1020.69 1021.29 1021.75 1022.11 1022.20 1022.53 1022.81 1023.02 1023.35 1023.56 1023.64
1006.30 1004.51 1004.07 1004.66 1004.59 1004.86 1004.71 1005.24 1005.72 1006.75 1006.96 1008.27 1010.48 1012.08 1012.69 1013.14 1013.40 1013.64 1014.27 1014.64 1014.98 1015.11 1015.58 1015.54 1016.10 1016.14 1016.54 1017.17 1017.62 1018.10 1019.06 1019.25 1019.10 1019.79 1019.93 1019.76 1020.12 1020.48 1021.47 1021.98 1022.23 1022.48 1022.74 1022.93 1023.16 1023.39 1023.35 1022.99 1022.33
1005.57 1004.86 1004.74 1004.72 1005.32 1005.41 1005.13 1005.17 1006.20 1006.69 1007.21 1008.30 1010.34 1012.30 1013.17 1013.57 1013.67 1014.29 1014.88 1015.31 1015.66 1015.75 1016.26 1016.39 1016.27 1016.96 1017.17 1017.75 1017.96 1017.96 1018.42 1019.54 1019.50 1020.37 1020.21 1020.17 1020.77 1021.33 1022.01 1022.31 1022.33 1022.67 1022.75 1022.62 1023.13 1023.26 1022.57 1022.78 1022.56
1005.98 1005.36 1005.34 1005.15 1005.57 1005.76 1005.20 1005.43 1005.92 1007.34 1008.40 1009.46 1011.22 1012.52 1013.19 1013.57 1013.88 1014.59 1015.43 1015.93 1016.21 1016.47 1016.81 1017.03 1017.25 1017.22 1018.05 1018.29 1018.97 1018.90 1019.58 1019.59 1019.97 1020.47 1020.51 1020.90 1021.23 1021.48 1021.79 1021.77 1021.84 1022.14 1022.12 1022.35 1022.43 1022.66 1023.20 1023.31 1023.41
1005.93 1005.56 1005.58 1005.50 1005.89 1005.86 1006.06 1006.03 1006.58 1007.87 1009.55 1010.80 1012.02 1013.01 1013.57 1013.77 1014.22 1014.82 1015.91 1016.39 1016.76 1017.11 1017.50 1017.94 1018.26 1018.00 1018.56 1019.26 1019.99 1019.32 1019.67 1020.31 1020.51 1020.81 1020.91 1021.20 1021.18 1021.35 1021.24 1021.19 1021.51 1021.57 1022.01 1022.27 1022.37 1023.04 1023.14 1023.40 1023.51
1005.99 1005.92 1005.52 1005.75 1005.77 1005.82 1006.11 1006.35 1006.70 1008.14 1009.54 1010.77 1012.00 1013.02 1013.77 1013.71 1014.56 1015.62 1016.35 1016.90 1017.38 1017.81 1018.21 1018.64 1019.08 1019.19 1019.49 1020.05 1020.55 1021.13 1020.74 1020.19 1020.64 1020.66 1020.63 1020.71 1020.80 1021.22 1021.18 1021.44 1021.33 1021.55 1021.88 1022.01 1022.24 1022.65 1022.93 1022.95 1023.32
1006.15 1005.74 1005.10 1005.10 1005.43 1005.67 1006.42 1006.51 1005.99 1008.11 1009.30 1009.79 1011.01 1012.78 1013.71 1013.86 1014.86 1015.37 1016.03 1016.90 1017.48 1018.22 1018.62 1019.07 1019.62 1019.94 1020.13 1020.73 1020.56 1019.99 1020.04 1020.01 1020.08 1020.13 1020.57 1020.67 1020.68 1021.29 1021.06 1021.02 1021.28 1021.45 1022.03 1022.18 1022.65 1023.00 1022.96 1023.02 1023.37
1005.68 1005.24 1004.72 1005.04 1005.23 1005.51 1007.65 1007.98 1006.98 1007.82 1008.67 1008.98 1010.12 1011.79 1013.06 1013.50 1013.98 1015.04 1015.77 1016.38 1017.35 1017.95 1018.46 1019.24 1019.43 1019.99 1019.97 1019.52 1018.98 1018.96 1019.42 1019.67 1019.86 1019.75 1020.13 1020.64 1020.54 1020.98 1021.08 1020.98 1021.13 1021.53 1022.15 1022.16 1022.43 1022.59 1022.64 1023.00 1023.23
1004.74 1004.21 1004.37 1005.12 1005.35 1004.92 1005.82 1006.33 1005.93 1007.13 1008.36 1009.11 1009.94 1010.81 1011.87 1012.56 1012.74 1013.36 1014.35 1015.52 1016.46 1017.17 1017.66 1018.28 1018.59 1018.63 1018.52 1018.75 1018.80 1018.73 1018.84 1019.46 1019.36 1019.42 1019.80 1020.42 1020.31 1020.66 1020.79 1020.68 1021.33 1021.76 1021.94 1022.07 1022.48 1022.53 1022.48 1023.09 1023.21
1003.48 1003.43 1003.68 1005.33 1004.78 1004.91 1004.33 1004.64 1005.70 1006.39 1007.68 1008.57 1009.46 1010.14 1011.27 1012.09 1012.46 1012.94 1013.81 1014.51 1015.30 1016.33 1017.03 1017.62 1018.14 1018.45 1018.60 1018.93 1019.18 1019.06 1019.28 1019.41 1019.32 1019.60 1020.16 1020.27 1020.24 1020.55 1020.75 1020.69 1021.50 1021.86 1021.83 1022.27 1022.52 1022.62 1022.91 1023.09 1023.27
1004.05 1003.62 1003.44 1004.54 1004.08 1004.28 1004.27 1004.07 1005.88 1005.91 1006.68 1007.76 1008.62 1009.14 1009.82 1010.24 1011.14 1012.32 1013.17 1014.01 1014.65 1015.47 1016.35 1016.74 1017.11 1017.46 1018.12 1018.21 1018.01 1018.31 1018.42 1018.76 1019.63 1019.83 1019.77 1019.70 1019.84 1020.41 1020.66 1020.67 1021.72 1021.77 1021.70 1022.15 1022.59 1022.75 1023.14 1023.34 1023.46
1004.44 1003.92 1003.40 1003.39 1003.92 1004.28 1003.69 1003.10 1003.38 1004.64 1005.67 1006.25 1007.16 1007.73 1008.18 1008.84 1009.90 1011.29 1012.35 1013.33 1014.01 1014.68 1015.33 1015.99 1016.40 1016.76 1017.11 1017.19 1017.20 1017.49 1017.73 1017.92 1018.40 1018.70 1019.36 1019.37 1019.74 1020.17 1020.63 1020.69 1021.33 1021.51 1021.44 1022.11 1022.59 1022.82 1022.70 1022.70 1023.52
1004.42 1003.85 1003.29 1003.48 1003.69 1003.87 1003.46 1002.80 1002.55 1003.36 1004.66 1005.58 1006.16 1006.67 1007.26 1007.63 1008.40 1009.58 1010.82 1011.95 1013.16 1013.65 1014.27 1014.83 1015.12 1015.63 1016.29 1016.50 1016.58 1017.11 1017.19 1017.46 1017.93 1018.30 1018.51 1019.11 1019.64 1019.96 1020.17 1020.57 1020.97 1021.10 1021.50 1021.98 1022.46 1022.52 1022.57 1022.49 1023.19
1003.80 1003.92 1004.06 1004.10 1003.85 1002.91 1003.11 1002.81 1003.14 1002.43 1003.48 1004.26 1005.01 1005.55 1006.03 1006.58 1007.25 1008.04 1009.26 1010.35 1011.38 1012.34 1013.19 1013.87 1014.23 1014.86 1015.68 1016.10 1015.89 1016.30 1016.57 1017.41 1017.98 1018.28 1018.59 1018.84 1019.63 1020.02 1020.04 1020.47 1020.68 1021.24 1021.42 1021.71 1021.99 1022.23 1022.35 1022.92 1022.97
1004.22 1004.62 1004.52 1004.13 1003.58 1003.22 1002.60 1002.27 1002.41 1001.93 1002.02 1002.82 1003.60 1004.39 1005.02 1005.41 1005.97 1006.63 1007.60 1008.75 1009.78 1010.90 1011.77 1012.57 1013.23 1013.71 1014.05 1015.08 1015.40 1015.69 1016.29 1016.70 1017.12 1018.17 1018.39 1018.82 1019.62 1020.06 1020.27 1020.32 1020.79 1021.23 1021.44 1021.64 1021.98 1022.15 1022.72 1023.01 1023.11
1004.36 1004.89 1004.76 1004.37 1003.80 1003.20 1002.67 1002.07 1001.89 1001.16 1001.01 1001.08 1001.82 1002.91 1003.73 1004.43 1005.04 1005.55 1006.15 1007.21 1008.19 1009.35 1010.47 1011.45 1012.25 1012.69 1013.25 1014.00 1015.15 1015.78 1016.26 1016.94 1017.22 1017.45 1018.14 1018.61 1019.32 1019.65 1019.86 1020.01 1020.45 1020.93 1021.55 1021.65 1021.82 1022.36 1022.81 1023.08 1023.30
1004.66 1004.66 1004.24 1003.79 1003.52 1003.08 1002.41 1002.10 1001.19 1001.60 1000.71 1001.02 1001.24 1001.37 1002.31 1003.20 1003.86 1004.50 1005.06 1005.81 1006.83 1007.97 1009.24 1010.46 1011.25 1011.74 1012.41 1012.99 1014.60 1015.33 1015.68 1017.04 1017.21 1017.54 1017.88 1018.57 1018.75 1019.20 1019.59 1020.06 1020.56 1021.05 1021.33 1021.18 1021.69 1022.42 1022.75 1022.98 1023.53
1003.92 1004.07 1003.68 1004.48 1003.31 1002.81 1003.19 1001.84 1000.70 1000.42 1000.70 1001.17 1001.41 1001.51 1001.35 1001.75 1002.80 1003.35 1003.85 1004.82 1005.78 1006.79 1008.11 1009.44 1010.31 1011.03 1011.65 1013.06 1014.00 1015.52 1015.04 1015.93 1016.46 1016.81 1017.51 1017.97 1018.27 1018.72 1019.81 1020.39 1020.73 1020.90 1020.86 1021.16 1022.16 1022.82 1022.62 1023.15 1023.43
1003.29 1003.46 1003.40 1004.01 1003.87 1003.39 1002.25 1001.32 1000.82 1000.62 1000.86 1001.15 1001.15 1001.48 1001.37 1001.46 1001.56 1002.49 1003.00 1003.71 1004.75 1005.63 1006.72 1008.16 1009.34 1010.35 1011.51 1012.48 1013.85 1014.25 1014.12 1015.02 1015.48 1016.31 1017.04 1017.36 1017.94 1019.05 1019.69 1020.11 1020.34 1020.45 1020.67 1021.56 1022.23 1022.39 1022.65 1022.88 1023.37
1002.97 1003.52 1003.57 1003.78 1003.75 1003.74 1002.45 1001.05 1000.15 1000.62 1000.40 1000.84 1001.01 1001.05 1001.34 1001.65 1001.82 1002.09 1002.33 1002.75 1003.52 1004.39 1005.46 1007.01 1008.35 1009.27 1010.75 1012.51 1013.14 1013.68 1014.00 1014.76 1015.25 1015.71 1016.06 1016.62 1017.77 1018.73 1019.12 1019.36 1019.62 1019.90 1020.71 1021.41 1021.86 1022.49 1022.52 1022.99 1023.26
1003.02 1003.10 1003.12 1003.31 1003.63 1003.67 1002.81 1001.17 1000.62 1000.35 1000.57 1000.74 1000.86 1001.44 1001.54 1001.76 1002.18 1002.64 1002.90 1003.05 1003.34 1003.65 1004.82 1006.23 1007.64 1008.48 1009.91 1011.29 1012.29 1013.29 1013.64 1014.27 1014.83 1015.24 1015.68 1016.59 1017.52 1018.02 1018.38 1018.85 1019.40 1019.99 1020.60 1021.03 1021.75 1022.21 1022.60 1022.72 1022.84
1001.73 1002.11 1002.65 1003.08 1003.24 1003.40 1003.07 1001.88 1000.87 1000.70 1000.61 1000.92 1001.18 1001.42 1001.72 1002.07 1002.26 1002.65 1003.18 1003.68 1003.98 1004.37 1004.95 1005.96 1007.26 1007.91 1008.52 1009.92 1011.30 1012.31 1012.95 1013.62 1014.30 1014.84 1015.43 1016.19 1016.95 1017.49 1017.95 1018.42 1019.33 1020.02 1020.39 1020.91 1021.65 1022.18 1022.29 1022.75 1023.56
Thickness
5680 5680 5690 5688 5668 5684 5689 5713 5742 5727 5726 5737 5747 5730 5740 5727 5709 5691 5703 5712 5726 5726 5716 5711 5709 5706 5702 5699 5697 5693 5690 5690 5687 5684 5680 5678 5676 5674 5670 5669 5668 5666 5663 5660 5658 5657 5657 5655 5655
5685 5686 5686 5684 5668 5684 5707 5730 5715 5724 5724 5718 5718 5728 5727 5705 5713 5708 5704 5707 5716 5714 5712 5707 5702 5697 5693 5692 5691 5689 5684 5684 5681 5678 5671 5670 5669 5667 5666 5664 5661 5660 5658 5655 5653 5653 5651 5649 5649
5676 5684 5674 5679 5683 5688 5699 5716 5723 5713 5714 5714 5711 5716 5708 5697 5700 5702 5706 5708 5708 5704 5704 5698 5693 5687 5686 5687 5684 5683 5680 5677 5675 5671 5665 5663 5663 5660 5658 5656 5654 5654 5652 5650 5646 5646 5645 5645 5643
5679 5681 5681 5667 5681 5704 5706 5708 5707 5709 5710 5711 5716 5697 5693 5686 5678 5685 5687 5702 5698 5687 5688 5683 5686 5680 5682 5681 5678 5677 5673 5671 5671 5664 5660 5658 5657 5653 5651 5650 5649 5646 5645 5642 5641 5639 5638 5638 5637
5680 5681 5670 5681 5691 5699 5699 5703 5701 5700 5709 5699 5708 5692 5696 5675 5673 5667 5675 5684 5685 5671 5674 5676 5673 5674 5675 5674 5672 5669 5667 5664 5662 5659 5653 5651 5650 5645 5643 5645 5644 5642 5641 5636 5634 5632 5632 5630 5632
5670 5683 5675 5684 5695 5693 5697 5694 5693 5692 5694 5697 5699 5690 5681 5667 5668 5668 5672 5680 5685 5681 5672 5671 5665 5665 5667 5667 5664 5662 5660 5658 5652 5653 5646 5646 5642 5638 5637 5638 5636 5636 5636 5633 5629 5627 5626 5627 5626
5669 5676 5683 5685 5689 5682 5686 5692 5687 5696 5696 5694 5695 5682 5669 5665 5659 5663 5669 5672 5673 5672 5671 5662 5658 5656 5658 5657 5657 5655 5651 5650 5646 5645 5642 5640 5637 5633 5633 5629 5630 5629 5629 5626 5626 5621 5624 5624 5623
5676 5680 5683 5691 5664 5644 5684 5686 5688 5687 5688 5689 5689 5674 5669 5659 5660 5661 5664 5662 5663 5664 5659 5655 5650 5648 5649 5647 5644 5644 5640 5638 5636 5633 5630 5633 5629 5626 5628 5626 5623 5623 5623 5621 5619 5620 5620 5617 5617
5685 5675 5686 5685 5685 5668 5694 5688 5688 5684 5680 5678 5671 5667 5661 5654 5653 5654 5651 5652 5652 5651 5652 5650 5643 5641 5642 5643 5633 5628 5625 5627 5626 5626 5619 5622 5619 5618 5620 5620 5618 5617 5620 5619 5618 5617 5615 5613 5612
5677 5687 5687 5692 5692 5683 5694 5687 5685 5675 5677 5668 5651 5645 5647 5646 5647 5647 5643 5639 5639 5640 5638 5640 5634 5637 5635 5629 5627 5623 5617 5616 5619 5615 5615 5615 5615 5612 5607 5609 5611 5613 5613 5614 5613 5611 5613 5614 5619
5685 5678 5689 5693 5686 5687 5686 5686 5683 5674 5667 5664 5651 5637 5636 5638 5642 5638 5634 5632 5629 5631 5629 5629 5631 5627 5626 5621 5620 5618 5616 5608 5608 5600 5603 5607 5606 5600 5599 5600 5606 5609 5610 5612 5609 5609 5613 5611 5614
5669 5684 5684 5686 5684 5679 5682 5687 5678 5669 5662 5663 5649 5639 5635 5634 5635 5632 5625 5622 5620 5621 5620 5619 5618 5620 5614 5613 5602 5604 5600 5601 5601 5599 5601 5600 5598 5598 5598 5602 5607 5610 5610 5610 5610 5609 5606 5605 5603
5671 5677 5681 5684 5679 5680 5680 5676 5671 5661 5655 5647 5636 5629 5625 5627 5627 5626 5618 5615 5612 5609 5608 5604 5603 5607 5605 5599 5595 5602 5597 5593 5593 5591 5592 5591 5595 5597 5600 5607 5608 5610 5609 5608 5609 5604 5603 5600 5599
5678 5676 5679 5679 5678 5681 5672 5670 5672 5660 5652 5639 5629 5620 5616 5620 5615 5608 5605 5602 5599 5596 5594 5593 5591 5592 5591 5587 5586 5579 5583 5588 5588 5589 5594 5595 5597 5596 5601 5602 5608 5609 5607 5607 5607 5604 5601 5600 5596
5679 5669 5682 5683 5681 5677 5674 5649 5670 5660 5650 5645 5636 5617 5607 5602 5604 5603 5602 5595 5591 5587 5584 5582 5581 5580 5580 5577 5581 5584 5585 5586 5590 5595 5592 5595 5599 5596 5602 5606 5606 5607 5602 5604 5601 5597 5597 5596 5592
5674 5679 5667 5680 5682 5682 5648 5616 5665 5666 5654 5649 5641 5623 5609 5607 5608 5602 5602 5599 5591 5586 5581 5577 5576 5573 5576 5582 5588 5588 5589 5591 5592 5596 5597 5597 5600 5602 5603 5606 5607 5605 5600 5601 5598 5596 5596 5593 5589
5681 5670 5673 5666 5681 5687 5669 5621 5672 5671 5655 5643 5640 5633 5622 5619 5624 5624 5618 5609 5602 5596 5591 5586 5587 5585 5589 5587 5592 5595 5597 5594 5599 5602 5601 5600 5604 5603 5604 5606 5601 5601 5598 5599 5594 5594 5594 5586 5584
5680 5684 5685 5649 5678 5682 5686 5679 5675 5674 5660 5650 5643 5641 5629 5624 5626 5628 5625 5622 5616 5608 5603 5600 5597 5594 5595 5589 5591 5595 5595 5596 5600 5600 5597 5600 5603 5603 5602 5603 5597 5596 5596 5592 5590 5589 5585 5582 5578
5685 5686 5685 5675 5691 5682 5679 5685 5665 5675 5668 5656 5650 5649 5645 5643 5643 5637 5632 5627 5622 5617 5610 5608 5606 5606 5601 5601 5603 5602 5603 5604 5597 5597 5599 5603 5603 5601 5600 5600 5592 5592 5592 5588 5584 5582 5576 5573 5570
5673 5676 5683 5692 5689 5681 5684 5691 5696 5683 5673 5671 5664 5661 5661 5658 5651 5642 5636 5632 5628 5623 5619 5615 5613 5613 5612 5613 5615 5613 5612 5611 5607 5607 5603 5604 5602 5600 5597 5597 5591 5589 5590 5582 5579 5575 5574 5573 5562
5668 5673 5683 5679 5685 5686 5684 5683 5695 5692 5683 5676 5674 5674 5669 5667 5662 5656 5649 5643 5636 5633 5630 5627 5628 5626 5622 5621 5620 5615 5615 5612 5610 5608 5608 5604 5601 5599 5597 5594 5591 5589 5583 5579 5573 5572 5569 5566 5557
5663 5682 5675 5672 5671 5666 5688 5654 5670 5695 5683 5681 5679 5677 5676 5675 5674 5671 5662 5655 5649 5644 5640 5636 5635 5631 5624 5622 5623 5620 5617 5608 5607 5606 5605 5605 5598 5595 5595 5591 5588 5581 5578 5575 5570 5567 5564 5553 5547
5668 5676 5669 5674 5676 5676 5682 5674 5674 5699 5687 5684 5686 5684 5683 5684 5683 5679 5674 5669 5664 5657 5651 5647 5642 5639 5638 5631 5628 5625 5620 5618 5615 5606 5605 5602 5594 5591 5589 5586 5582 5575 5571 5568 5564 5560 5551 5543 5538
5679 5665 5666 5672 5674 5654 5676 5680 5671 5688 5696 5703 5700 5695 5692 5690 5689 5688 5688 5682 5675 5669 5661 5653 5647 5645 5643 5637 5627 5620 5615 5609 5607 5607 5601 5598 5593 5590 5587 5584 5579 5572 5565 5562 5557 5548 5540 5534 5528
5665 5656 5640 5647 5648 5648 5686 5673 5686 5683 5708 5705 5703 5708 5701 5698 5695 5692 5689 5687 5681 5673 5666 5657 5652 5648 5647 5642 5627 5621 5616 5603 5600 5600 5598 5592 5592 5590 5585 5579 5572 5565 5559 5556 5548 5539 5531 5525 5515
5661 5663 5648 5594 5640 5660 5670 5661 5686 5711 5710 5707 5705 5706 5711 5705 5700 5698 5697 5691 5685 5679 5671 5661 5655 5650 5648 5635 5628 5615 5619 5605 5600 5603 5597 5594 5591 5588 5576 5569 5563 5558 5554 5548 5536 5526 5522 5513 5506
5663 5654 5681 5650 5660 5653 5675 5688 5700 5705 5699 5699 5699 5698 5701 5704 5706 5701 5701 5697 5691 5684 5677 5668 5658 5651 5643 5637 5624 5621 5620 5614 5611 5606 5599 5594 5588 5576 5569 5563 5559 5554 5547 5537 5526 5520 5512 5505 5496
5667 5674 5649 5654 5629 5622 5662 5675 5681 5683 5691 5692 5692 5694 5696 5697 5699 5702 5704 5703 5700 5694 5686 5674 5664 5655 5645 5630 5626 5620 5619 5612 5608 5604 5599 5593 5582 5572 5566 5561 5555 5548 5538 5528 5519 5510 5504 5494 5485
5653 5651 5660 5665 5657 5631 5633 5666 5692 5690 5691 5687 5691 5689 5691 5693 5692 5691 5693 5698 5698 5697 5688 5676 5665 5657 5645 5637 5627 5617 5615 5609 5605 5600 5595 5586 5576 5570 5564 5557 5548 5539 5530 5522 5511 5502 5492 5485 5476
5673 5661 5661 5641 5643 5649 5643 5651 5694 5692 5691 5687 5685 5686 5688 5688 5689 5690 5688 5686 5686 5685 5681 5673 5663 5658 5654 5643 5630 5621 5615 5609 5602 5596 5589 5581 5572 5565 5558 5551 5538 5528 5521 5512 5500 5489 5483 5473 5456